Location: Central Falls
(41.8900°N, 71.3929°W)
Time: 10:37:01
(UTC+00:00)

A-11 Canister half - Pass Details

Date: 11 December 2023
Orbit: 1526 x 1682 km, 47.3° (Epoch: 20 February)

Event Time Altitude Azimuth Distance (km) Brightness Sun altitude
Rises 19:46:33 0° 190° (S) 4,863 12.7 11.9°
Reaches altitude 10° 19:50:24 10° 178° (S) 3,898 11.9 11.4°
Maximum altitude 19:58:00 25° 128° (SE) 2,900 10.5 10.4°
Drops below altitude 10° 20:05:40 10° 78° (ENE) 3,946 10.7 9.4°
Sets 20:09:33 0° 66° (ENE) 4,934 11.0 8.9°
